Change the Weather History Date:

Tuesday, September 17, 2013

  Actual Average Record
Temperature  
Mean Temperature 50 °F -  
Max Temperature 57 °F 61 °F 77 °F (2003)
Min Temperature 44 °F 46 °F 41 °F (1996)
Degree Days  
Heating Degree Days 14    
Moisture  
Dew Point 46 °F    
Average Humidity 86    
Maximum Humidity 100    
Minimum Humidity 55    
Precipitation  
Precipitation 0.00 in - - ()
Sea Level Pressure  
Sea Level Pressure 29.52 in    
Wind  
Wind Speed 7 mph ()    
Max Wind Speed 15 mph    
Max Gust Speed -    
Visibility 5.8 miles    
Events Rain , Thunderstorm    
Averages and records for this station are not official NWS values.
T = Trace of Precipitation, MM = Missing Value Source: Averaged Metar Reports

Daily Weather History Graph

Daily Weather History Graph

Search for Another Location

Airport or City:

Trip Planner

Search our weather history database for the weather conditions in past years. The results will help you decide how hot, cold, wet, or windy it might be!

Date:

Astronomy

Sep. 17, 2013 Rise Set
Actual Time 7:18 AM CEST 7:50 PM CEST
Civil Twilight 6:44 AM CEST 8:23 PM CEST
Nautical Twilight 6:04 AM CEST 9:03 PM CEST
Astronomical Twilight 5:22 AM CEST 9:45 PM CEST
Moon 6:34 PM CEST (9/17) 4:43 AM CEST (9/17)
Length of Visible Light 13h 38m
Length of Day
12h 31m
Waxing Gibbous, 94% of the Moon is Illuminated
Sep 17
Waxing Gibbous
Sep 19
Full
Sep 27
Last Quarter
Oct 5
New
Oct 12
First Quarter

Hourly Weather History & Observations

Time (CEST) Temp. Windchill Dew Point Humidity Pressure Visibility Wind Dir Wind Speed Gust Speed Precip Events Conditions
12:25 AM 46.4 °F 42.4 °F 42.8 °F 87% 29.56 in 6.2 mi SSW 8.1 mph - N/A   Overcast
12:55 AM 46.4 °F 41.9 °F 44.6 °F 93% 29.59 in 6.2 mi SW 9.2 mph - N/A   Scattered Clouds
1:25 AM 46.4 °F 42.9 °F 44.6 °F 93% 29.59 in 6.2 mi SW 6.9 mph - N/A   Mostly Cloudy
1:55 AM 48.2 °F - 44.6 °F 87% 29.59 in 6.2 mi SW 8.1 mph - N/A   Mostly Cloudy
2:25 AM 48.2 °F - 44.6 °F 87% 29.59 in 6.2 mi SW 8.1 mph - N/A Rain Light Rain
2:55 AM 48.2 °F - 44.6 °F 87% 29.59 in 6.2 mi SSW 9.2 mph - N/A   Mostly Cloudy
3:25 AM 46.4 °F 41.9 °F 44.6 °F 93% 29.59 in 6.2 mi SSW 9.2 mph - N/A   Unknown
3:55 AM 46.4 °F 43.5 °F 44.6 °F 93% 29.59 in 6.2 mi SW 5.8 mph - N/A   Mostly Cloudy
4:25 AM 46.4 °F 42.9 °F 42.8 °F 87% 29.59 in 6.2 mi SSW 6.9 mph - N/A   Scattered Clouds
4:55 AM 46.4 °F 43.5 °F 42.8 °F 87% 29.59 in 6.2 mi SSW 5.8 mph - N/A   Partly Cloudy
5:25 AM 46.4 °F 42.4 °F 42.8 °F 87% 29.59 in 6.2 mi SSW 8.1 mph - N/A   Partly Cloudy
5:55 AM 46.4 °F 42.9 °F 42.8 °F 87% 29.59 in 6.2 mi SW 6.9 mph - N/A   Mostly Cloudy
6:25 AM 46.4 °F 44.3 °F 42.8 °F 87% 29.59 in 6.2 mi SW 4.6 mph - N/A Rain Light Rain
6:55 AM 44.6 °F 41.4 °F 42.8 °F 93% 29.59 in 6.2 mi SSW 5.8 mph - N/A   Mostly Cloudy
7:25 AM 44.6 °F 40.2 °F 42.8 °F 93% 29.59 in 6.2 mi SSW 8.1 mph - N/A   Unknown
7:55 AM 46.4 °F 42.4 °F 42.8 °F 87% 29.59 in 6.2 mi SW 8.1 mph - N/A   Mostly Cloudy
7:59 AM 46.4 °F 42.4 °F 42.8 °F 87% 29.59 in 6.2 mi SW 8.1 mph - N/A   Mostly Cloudy
8:04 AM 46.4 °F 42.4 °F 44.6 °F 93% 29.59 in 6.2 mi SW 8.1 mph - N/A Rain Light Rain
8:25 AM 46.4 °F 41.9 °F 42.8 °F 87% 29.59 in 6.2 mi SSW 9.2 mph - N/A   Mostly Cloudy
8:55 AM 48.2 °F - 44.6 °F 87% 29.59 in 6.2 mi SSW 9.2 mph - N/A   Mostly Cloudy
9:25 AM 48.2 °F - 44.6 °F 87% 29.59 in 6.2 mi SW 9.2 mph - N/A   Mostly Cloudy
9:55 AM 48.2 °F - 44.6 °F 87% 29.59 in 6.2 mi SW 10.4 mph - N/A   Overcast
10:25 AM 50.0 °F - 46.4 °F 87% 29.59 in 6.2 mi SSW 10.4 mph - N/A Rain Light Rain
10:55 AM 50.0 °F - 46.4 °F 87% 29.62 in 6.2 mi SSW 11.5 mph - N/A Rain Light Rain
11:16 AM 51.8 °F - 48.2 °F 88% 29.62 in 6.2 mi SW 10.4 mph - N/A   Mostly Cloudy
11:25 AM 51.8 °F - 48.2 °F 88% 29.62 in 6.2 mi SW 9.2 mph - N/A Rain Light Rain Showers
11:43 AM 53.6 °F - 48.2 °F 82% 29.62 in 6.2 mi SW 11.5 mph - N/A   Mostly Cloudy
11:55 AM 53.6 °F - 46.4 °F 77% 29.59 in 6.2 mi SW 11.5 mph - N/A   Mostly Cloudy
12:04 PM 53.6 °F - 46.4 °F 77% 29.62 in 6.2 mi SW 9.2 mph - N/A   Mostly Cloudy
12:08 PM 53.6 °F - 46.4 °F 77% 29.62 in 6.2 mi SW 9.2 mph - N/A   Mostly Cloudy
12:25 PM 53.6 °F - 46.4 °F 77% 29.62 in 6.2 mi SW 9.2 mph - N/A   Overcast
12:40 PM 53.6 °F - 46.4 °F 77% 29.62 in 6.2 mi SW 8.1 mph - N/A   Light Drizzle
12:55 PM 53.6 °F - 46.4 °F 77% 29.59 in 6.2 mi SW 8.1 mph - N/A   Mostly Cloudy
1:25 PM 53.6 °F - 44.6 °F 72% 29.59 in 6.2 mi SW 6.9 mph - N/A   Mostly Cloudy
1:55 PM 51.8 °F - 46.4 °F 82% 29.59 in 6.2 mi WNW 6.9 mph - N/A   Mostly Cloudy
2:03 PM 51.8 °F - 46.4 °F 82% 29.59 in 6.2 mi WNW 9.2 mph - N/A Thunderstorm Thunderstorm
2:25 PM 51.8 °F - 46.4 °F 82% 29.59 in 6.2 mi WNW 5.8 mph - N/A   Mostly Cloudy
2:55 PM 55.4 °F - 42.8 °F 63% 29.59 in 6.2 mi SW 10.4 mph - N/A   Mostly Cloudy
3:25 PM 57.2 °F - 41.0 °F 55% 29.59 in 6.2 mi SW 15.0 mph - N/A   Mostly Cloudy
3:55 PM 57.2 °F - 42.8 °F 59% 29.56 in 6.2 mi WSW 9.2 mph - N/A   Mostly Cloudy
4:25 PM 55.4 °F - 42.8 °F 63% 29.56 in 6.2 mi SW 9.2 mph - N/A   Mostly Cloudy
4:29 PM 55.4 °F - 42.8 °F 63% 29.56 in 6.2 mi SW 10.4 mph - N/A   Mostly Cloudy
4:55 PM 55.4 °F - 41.0 °F 58% 29.56 in 6.2 mi SW 10.4 mph - N/A   Mostly Cloudy
5:25 PM 55.4 °F - 41.0 °F 58% 29.53 in 6.2 mi SW 8.1 mph - N/A   Mostly Cloudy
5:55 PM 55.4 °F - 41.0 °F 58% 29.53 in 6.2 mi SW 10.4 mph - N/A   Mostly Cloudy
6:25 PM 53.6 °F - 42.8 °F 67% 29.53 in 6.2 mi SW 9.2 mph - N/A Rain Light Rain
6:55 PM 50.0 °F - 44.6 °F 82% 29.53 in 6.2 mi SW 6.9 mph - N/A Rain Light Rain Showers
7:25 PM 50.0 °F - 46.4 °F 87% 29.50 in 6.2 mi South 5.8 mph - N/A Rain Light Rain
7:38 PM 50.0 °F - 48.2 °F 94% 29.50 in 6.2 mi South 5.8 mph - N/A Rain Light Rain Showers
7:42 PM 50.0 °F - 48.2 °F 94% 29.47 in 6.2 mi SSE 6.9 mph - N/A Rain Light Rain Showers
7:55 PM 50.0 °F - 48.2 °F 94% 29.47 in 6.2 mi SSE 6.9 mph - N/A Rain Light Rain
7:59 PM 50.0 °F - 48.2 °F 94% 29.47 in 6.2 mi SSE 6.9 mph - N/A Rain Light Rain
8:04 PM 50.0 °F - 48.2 °F 94% 29.47 in 6.2 mi SE 6.9 mph - N/A Rain Light Rain
8:11 PM 50.0 °F - 48.2 °F 94% 29.47 in 6.2 mi SE 6.9 mph - N/A Rain Light Rain Showers
8:17 PM 50.0 °F - 48.2 °F 94% 29.44 in 6.2 mi SE 8.1 mph - N/A Rain Light Rain
8:25 PM 50.0 °F - 48.2 °F 94% 29.44 in 6.2 mi SSE 8.1 mph - N/A Rain Light Rain
8:55 PM 50.0 °F - 48.2 °F 94% 29.44 in 5.6 mi SE 6.9 mph - N/A Rain Light Rain
9:02 PM 50.0 °F - 48.2 °F 94% 29.44 in 4.3 mi SSE 6.9 mph - N/A Rain Light Rain
9:05 PM 50.0 °F - 48.2 °F 94% 29.44 in 3.7 mi SE 6.9 mph - N/A Rain Light Rain
9:11 PM 50.0 °F - 48.2 °F 94% 29.44 in - SE 6.9 mph - N/A Rain Heavy Rain Showers
9:25 PM 50.0 °F - 48.2 °F 94% 29.42 in 3.7 mi SE 6.9 mph - N/A Rain Rain
9:29 PM 50.0 °F - 48.2 °F 94% 29.42 in 3.7 mi SE 6.9 mph - N/A Rain Light Rain
9:55 PM 50.0 °F - 48.2 °F 94% 29.42 in 3.7 mi SE 8.1 mph - N/A   Drizzle
10:06 PM 50.0 °F - 50.0 °F 100% 29.39 in 4.3 mi SE 5.8 mph - N/A   Light Drizzle
10:15 PM 50.0 °F - 50.0 °F 100% 29.39 in - SE 5.8 mph - N/A   Drizzle
10:25 PM 50.0 °F - 50.0 °F 100% 29.39 in 3.1 mi SE 6.9 mph - N/A   Heavy Drizzle
10:48 PM 50.0 °F - 50.0 °F 100% 29.36 in - SE 5.8 mph - N/A   Heavy Drizzle
10:55 PM 50.0 °F - 50.0 °F 100% 29.36 in - SE 6.9 mph - N/A   Drizzle
11:13 PM 50.0 °F - 50.0 °F 100% 29.36 in - SE 5.8 mph - N/A   Light Drizzle
11:16 PM 50.0 °F - 50.0 °F 100% 29.36 in - SE 5.8 mph - N/A   Light Drizzle
11:25 PM 50.0 °F - 50.0 °F 100% 29.36 in 2.5 mi SE 5.8 mph - N/A   Light Drizzle
11:32 PM 50.0 °F - 50.0 °F 100% 29.36 in 2.2 mi SE 3.5 mph - N/A   Light Drizzle
11:40 PM 50.0 °F - 50.0 °F 100% 29.36 in 2.2 mi SE 3.5 mph - N/A   Light Drizzle
11:50 PM 51.8 °F - 50.0 °F 94% 29.33 in - ESE 4.6 mph - N/A   Mostly Cloudy
11:55 PM 51.8 °F - 50.0 °F 94% 29.33 in - ESE 4.6 mph - N/A   Overcast